Location: Oak Glen
(34.0495°N, 116.9470°E)
Time: 02:17:44
(UTC-08:00)

Envisat - Pass Details

Date: 14 October 2017
Orbit: 764 x 766 km, 98.2° (Epoch: 13 December)

Event Time Altitude Azimuth Distance (km) Brightness Sun altitude
Exits shadow 03:58:20 14° 41° (NE) 2,009 4.8 -17.1°
Drops below altitude 10° 03:59:44 10° 27° (NNE) 2,306 5.2 -17.4°
Sets 04:02:46 0° 8° (N) 3,236 6.2 -18.0°
